EW5171 Weather Reports


Display with metric or nautical units.
time (UTC)temp
F
wind
direction
speed
MPH
gust
MPH
rain 1hr
in
rain 24hr
in
rain mn
in
humidity
%
barometer
mb
20260902182540 60 257 0.0 3.0 0.00 0.02 0.02 81 1013.7
20260902182043 60 259 0.0 3.0 0.00 0.02 0.02 80 1013.7
20260902181541 61 286 0.0 1.0 0.00 0.02 0.02 79 1013.7
20260902181038 62 286 0.0 3.0 0.00 0.02 0.02 78 1013.6
20260902180539 63 286 0.0 3.0 0.00 0.02 0.02 77 1013.6
20260902180045 64 331 0.0 1.0 0.00 0.02 0.02 77 1013.6
20260902175539 64 331 0.0 1.0 0.00 0.02 0.02 76 1013.5
20260902175044 65 331 0.0 1.0 0.00 0.02 0.02 75 1013.4
20260902174538 65 331 0.0 1.0 0.00 0.02 0.02 75 1013.3
20260902174040 65 331 0.0 2.0 0.00 0.02 0.02 76 1013.2
20260902173539 65 18 1.0 3.0 0.00 0.02 0.02 76 1013.2
20260902173053 64 245 0.0 3.0 0.00 0.02 0.02 78 1013.3
20260902172538 64 306 0.0 3.0 0.00 0.02 0.02 78 1013.3
20260902172041 64 282 0.0 4.0 0.00 0.02 0.02 77 1013.4
20260902171538 64 267 1.0 7.0 0.00 0.02 0.02 76 1013.4
20260902171039 65 205 1.0 3.0 0.00 0.02 0.02 77 1013.4
20260902170537 65 298 0.0 5.0 0.00 0.02 0.02 76 1013.3
20260902170041 65 245 1.0 5.0 0.00 0.02 0.02 75 1013.3
20260902165536 66 239 1.0 4.0 0.00 0.02 0.02 75 1013.2
20260902165037 66 55 1.0 7.0 0.00 0.02 0.02 75 1013.3
20260902164541 65 33 2.0 7.0 0.00 0.02 0.02 75 1013.2
20260902164036 65 202 1.0 6.0 0.00 0.02 0.02 76 1013.2
20260902163536 65 284 1.0 7.0 0.00 0.02 0.02 77 1013.1
20260902163042 65 290 1.0 6.0 0.00 0.02 0.02 79 1013.1
20260902162536 65 274 1.0 6.0 0.00 0.02 0.02 80 1013.2
20260902162036 65 262 2.0 8.0 0.00 0.02 0.02 79 1013.2
20260902161535 65 276 2.0 8.0 0.00 0.02 0.02 80 1013.1
20260902161035 65 5 2.0 8.0 0.00 0.02 0.02 80 1013.2
20260902160535 65 211 2.0 10.0 0.00 0.02 0.02 81 1013.2
20260902160036 65 186 2.0 6.0 0.00 0.02 0.02 81 1013.2
20260902155535 64 191 2.0 5.0 0.00 0.02 0.02 82 1013.2
20260902155035 64 69 2.0 5.0 0.00 0.02 0.02 83 1013.2
20260902154538 64 302 0.0 6.0 0.00 0.02 0.02 83 1013.2
20260902154034 64 304 2.0 6.0 0.00 0.02 0.02 82 1013.3
20260902153534 64 197 1.0 6.0 0.00 0.02 0.02 82 1013.3
20260902153034 64 333 2.0 6.0 0.00 0.02 0.02 81 1013.3
20260902152536 65 89 1.0 4.0 0.00 0.02 0.02 80 1013.3
20260902152033 65 286 1.0 5.0 0.00 0.02 0.02 80 1013.3
20260902151536 66 315 1.0 5.0 0.00 0.02 0.02 78 1013.3
20260902151032 66 98 0.0 6.0 0.00 0.02 0.02 77 1013.3
20260902150532 67 18 2.0 6.0 0.00 0.02 0.02 74 1013.3
20260902150033 67 67 1.0 8.0 0.00 0.02 0.02 73 1013.2
20260902145533 68 221 3.0 8.0 0.00 0.02 0.02 72 1013.2
20260902145034 68 180 3.0 9.0 0.00 0.02 0.02 73 1013.1
20260902144532 67 186 3.0 8.0 0.00 0.02 0.02 74 1013.3
20260902144031 67 173 3.0 8.0 0.00 0.02 0.02 74 1013.3
20260902143633 67 244 2.0 8.0 0.00 0.02 0.02 74 1013.2
20260902143031 67 182 1.0 8.0 0.00 0.02 0.02 75 1013.2
20260902142533 67 154 2.0 10.0 0.00 0.02 0.02 74 1013.2
20260902142031 68 182 2.0 10.0 0.00 0.02 0.02 75 1013.2
20260902141530 67 261 4.0 10.0 0.00 0.02 0.02 75 1013.1
20260902141030 68 292 3.0 10.0 0.00 0.02 0.02 75 1013.1
20260902140530 68 200 3.0 10.0 0.00 0.02 0.02 74 1013.1
20260902140029 69 220 4.0 10.0 0.00 0.02 0.02 75 1013.1
20260902135534 69 232 4.0 12.0 0.00 0.03 0.02 76 1013.1
20260902135028 68 305 3.0 9.0 0.00 0.03 0.02 77 1013.1
20260902134527 67 331 3.0 10.0 0.00 0.03 0.02 77 1013.2
20260902134025 67 209 2.0 7.0 0.00 0.03 0.02 79 1013.1
20260902133525 67 159 3.0 14.0 0.00 0.03 0.02 79 1013.1
20260902133028 67 287 3.0 14.0 0.00 0.03 0.02 80 1013.1
20260902132527 67 179 2.0 9.0 0.00 0.03 0.02 82 1013.0
20260902132021 67 225 2.0 9.0 0.00 0.03 0.02 83 1013.1
20260902131520 66 172 3.0 10.0 0.00 0.03 0.02 83 1013.1
20260902131020 66 213 4.0 10.0 0.00 0.03 0.02 84 1013.1
20260902130520 66 216 3.0 11.0 0.00 0.03 0.02 83 1013.1
20260902130019 66 201 3.0 11.0 0.00 0.03 0.02 85 1013.2
20260902125520 65 191 3.0 11.0 0.00 0.03 0.02 87 1013.2
20260902125019 64 120 2.0 8.0 0.00 0.03 0.02 88 1013.3
20260902124519 64 268 3.0 9.0 0.00 0.03 0.02 88 1013.3
20260902124023 64 209 3.0 9.0 0.00 0.03 0.02 88 1013.4
20260902123518 64 163 1.0 7.0 0.00 0.03 0.02 88 1013.4
20260902123018 64 273 2.0 8.0 0.00 0.03 0.02 89 1013.4
20260902122518 64 286 2.0 11.0 0.00 0.03 0.02 89 1013.4
20260902122017 64 306 5.0 11.0 0.00 0.03 0.02 89 1013.4
20260902121516 64 213 2.0 8.0 0.00 0.03 0.02 90 1013.4
20260902121017 64 213 4.0 10.0 0.00 0.03 0.02 89 1013.5
20260902120518 64 118 1.0 10.0 0.00 0.03 0.02 90 1013.5
20260902120018 64 249 3.0 10.0 0.00 0.03 0.02 90 1013.5
20260902115516 63 195 3.0 9.0 0.00 0.04 0.02 90 1013.4
20260902115016 63 296 2.0 7.0 0.00 0.04 0.02 89 1013.4
20260902114516 63 306 3.0 9.0 0.00 0.04 0.02 89 1013.3
20260902114016 63 113 3.0 9.0 0.00 0.04 0.02 89 1013.3
20260902113515 64 198 1.0 5.0 0.00 0.04 0.02 89 1013.4
20260902113015 64 177 2.0 7.0 0.00 0.04 0.02 88 1013.5
20260902112515 64 257 2.0 7.0 0.00 0.04 0.02 87 1013.6
20260902112019 65 301 3.0 8.0 0.00 0.04 0.02 86 1013.6
20260902111519 65 161 2.0 9.0 0.00 0.04 0.02 85 1013.6
20260902111016 66 242 4.0 14.0 0.00 0.04 0.02 83 1013.6
20260902110516 66 273 4.0 14.0 0.00 0.04 0.02 83 1013.6
20260902110033 66 203 3.0 10.0 0.00 0.04 0.02 84 1013.6
20260902105515 65 261 5.0 10.0 0.00 0.05 0.02 85 1013.6
20260902105011 65 207 3.0 11.0 0.00 0.05 0.02 85 1013.7
20260902104520 64 256 2.0 11.0 0.00 0.05 0.02 85 1013.8
20260902104010 65 274 3.0 10.0 0.00 0.05 0.02 85 1013.8
20260902103510 65 196 3.0 12.0 0.00 0.05 0.02 85 1013.8
20260902103019 65 200 4.0 10.0 0.00 0.05 0.02 84 1013.8
20260902102510 65 189 2.0 9.0 0.00 0.05 0.02 85 1013.8
20260902102011 65 173 2.0 12.0 0.00 0.05 0.02 84 1013.8
20260902101510 65 313 4.0 12.0 0.00 0.05 0.02 84 1013.8
20260902101010 65 206 1.0 10.0 0.00 0.05 0.02 84 1013.9
20260902100509 65 219 3.0 10.0 0.00 0.05 0.02 83 1013.9
20260902100012 65 332 3.0 10.0 0.00 0.05 0.02 83 1014.0
20260902095508 65 208 3.0 10.0 0.00 0.05 0.02 84 1014.0
20260902095008 65 269 2.0 14.0 0.00 0.05 0.02 84 1013.9
20260902094509 65 175 4.0 14.0 0.00 0.05 0.02 83 1013.9
20260902094009 65 165 4.0 13.0 0.00 0.05 0.02 83 1013.9
20260902093507 65 175 4.0 11.0 0.00 0.05 0.02 84 1013.9
20260902093008 65 198 2.0 11.0 0.00 0.05 0.02 84 1013.9
20260902092507 65 278 3.0 9.0 0.00 0.05 0.02 84 1013.8
20260902092011 65 284 3.0 11.0 0.00 0.05 0.02 84 1013.8
20260902091507 65 202 2.0 11.0 0.00 0.05 0.02 84 1013.7
20260902091007 65 260 2.0 11.0 0.00 0.05 0.02 84 1013.6
20260902090509 65 288 3.0 10.0 0.00 0.05 0.02 84 1013.7
20260902090017 65 210 5.0 10.0 0.00 0.05 0.02 85 1013.6
20260902085505 64 286 2.0 10.0 0.00 0.06 0.02 86 1013.6
20260902085005 64 178 3.0 10.0 0.00 0.06 0.02 86 1013.7
20260902084505 64 175 1.0 10.0 0.00 0.06 0.02 85 1013.6
20260902084005 64 290 3.0 11.0 0.00 0.06 0.02 86 1013.6
20260902083505 64 239 3.0 13.0 0.00 0.06 0.02 85 1013.6
20260902083003 64 186 3.0 13.0 0.00 0.06 0.02 86 1013.7
20260902082503 64 244 4.0 11.0 0.00 0.06 0.02 86 1013.7
20260902082003 64 171 2.0 9.0 0.00 0.06 0.02 86 1013.6
20260902081503 64 205 3.0 9.0 0.00 0.06 0.02 86 1013.7
20260902081001 64 171 4.0 8.0 0.00 0.06 0.02 88 1013.6
20260902080600 63 205 2.0 7.0 0.00 0.06 0.02 88 1013.6
20260902080059 63 264 2.0 11.0 0.00 0.06 0.02 89 1013.7
20260902075601 63 184 3.0 11.0 0.00 0.06 0.02 90 1013.7
20260902075057 63 308 1.0 6.0 0.00 0.06 0.02 91 1013.6
20260902074556 63 308 2.0 10.0 0.00 0.06 0.02 91 1013.5
20260902074055 62 202 4.0 10.0 0.00 0.06 0.02 91 1013.5
20260902073555 62 321 3.0 8.0 0.00 0.06 0.02 92 1013.5
20260902073054 62 298 2.0 10.0 0.00 0.06 0.02 93 1013.6
20260902072552 62 215 2.0 11.0 0.00 0.06 0.02 93 1013.5
20260902072052 61 331 2.0 10.0 0.00 0.06 0.02 93 1013.6
20260902071551 61 219 0.0 5.0 0.00 0.06 0.02 93 1013.6
20260902071051 61 285 2.0 5.0 0.00 0.06 0.02 94 1013.5
20260902070549 61 99 1.0 6.0 0.00 0.06 0.02 94 1013.5
20260902070050 61 200 1.0 9.0 0.00 0.06 0.02 94 1013.5
20260902065552 61 228 1.0 5.0 0.00 0.06 0.02 94 1013.4
20260902065051 61 216 1.0 5.0 0.00 0.06 0.02 94 1013.3
20260902064549 61 179 1.0 6.0 0.00 0.06 0.02 95 1013.4
20260902064048 60 197 1.0 6.0 0.00 0.06 0.02 95 1013.4
20260902063549 60 190 1.0 4.0 0.00 0.06 0.02 95 1013.4
20260902063055 60 155 1.0 4.0 0.00 0.06 0.02 95 1013.4
20260902062546 60 285 1.0 5.0 0.00 0.06 0.02 95 1013.4
20260902062046 59 247 2.0 6.0 0.00 0.06 0.02 95 1013.4
20260902061601 59 320 1.0 6.0 0.00 0.06 0.02 95 1013.4
20260902061048 59 228 1.0 4.0 0.00 0.06 0.02 95 1013.4
20260902060541 59 230 0.0 5.0 0.00 0.06 0.02 95 1013.5
20260902060043 59 202 2.0 5.0 0.00 0.06 0.02 95 1013.5
20260902055540 59 193 0.0 4.0 0.00 0.06 0.02 95 1013.5
20260902055039 59 292 1.0 4.0 0.00 0.06 0.02 95 1013.5
20260902054540 59 190 1.0 4.0 0.00 0.06 0.02 95 1013.5
20260902054039 59 196 1.0 4.0 0.00 0.06 0.02 95 1013.5
20260902053539 59 257 0.0 3.0 0.00 0.06 0.02 96 1013.5
20260902053040 59 217 0.0 4.0 0.00 0.06 0.02 95 1013.5
20260902052538 59 327 0.0 4.0 0.00 0.06 0.02 96 1013.4
20260902052036 58 194 2.0 5.0 0.00 0.06 0.02 96 1013.4
20260902051553 58 288 1.0 5.0 0.00 0.06 0.02 96 1013.4
20260902051034 58 290 1.0 5.0 0.00 0.06 0.02 95 1013.4
20260902050532 58 270 0.0 5.0 0.00 0.06 0.02 96 1013.3
20260902050033 58 283 1.0 5.0 0.00 0.06 0.02 95 1013.3
20260902045531 58 298 1.0 6.0 0.00 0.06 0.02 95 1013.3
20260902045031 58 195 1.0 3.0 0.00 0.06 0.02 95 1013.2
20260902044558 58 259 0.0 4.0 0.00 0.06 0.02 95 1013.2
20260902044032 58 211 1.0 4.0 0.00 0.06 0.02 95 1013.2
20260902043529 57 255 0.0 3.0 0.00 0.06 0.02 95 1013.2
20260902043031 57 279 0.0 3.0 0.00 0.06 0.02 95 1013.2
20260902042527 57 175 0.0 4.0 0.00 0.06 0.02 95 1013.2
20260902042028 57 190 1.0 4.0 0.00 0.06 0.02 95 1013.2
20260902041532 57 219 0.0 3.0 0.00 0.06 0.02 95 1013.3
20260902041025 57 295 0.0 3.0 0.00 0.06 0.02 95 1013.3
20260902040525 57 205 0.0 4.0 0.00 0.06 0.02 95 1013.3
20260902040028 57 203 1.0 4.0 0.00 0.06 0.02 95 1013.3
20260902035525 57 198 1.0 2.0 0.00 0.06 0.02 95 1013.4
20260902035027 57 213 0.0 2.0 0.01 0.06 0.02 95 1013.4
20260902034524 57 213 0.0 4.0 0.01 0.06 0.02 95 1013.4
20260902034022 57 296 0.0 4.0 0.01 0.06 0.02 95 1013.4
20260902033522 57 315 0.0 3.0 0.01 0.06 0.02 95 1013.4
20260902033022 57 185 1.0 3.0 0.01 0.06 0.02 95 1013.4
20260902032526 57 260 0.0 3.0 0.01 0.06 0.02 95 1013.5
20260902032020 57 202 0.0 4.0 0.01 0.06 0.02 95 1013.4
20260902031538 57 227 1.0 4.0 0.01 0.06 0.02 95 1013.4
20260902031019 57 233 0.0 4.0 0.01 0.06 0.02 95 1013.5
20260902030522 57 230 0.0 5.0 0.01 0.06 0.02 95 1013.6
20260902030018 56 213 0.0 5.0 0.01 0.06 0.02 95 1013.7
20260902025518 56 237 0.0 2.0 0.01 0.07 0.02 94 1013.7
20260902025018 56 237 0.0 3.0 0.00 0.06 0.01 95 1013.7
20260902024518 57 237 0.0 3.0 0.00 0.06 0.01 95 1013.8
20260902024017 57 151 1.0 4.0 0.00 0.06 0.01 95 1013.7
20260902023517 57 165 1.0 4.0 0.00 0.06 0.01 95 1013.7
20260902023022 57 209 0.0 5.0 0.00 0.06 0.01 95 1013.7
20260902022516 56 290 2.0 6.0 0.00 0.06 0.01 95 1013.6
20260902022016 56 304 1.0 4.0 0.00 0.06 0.01 95 1013.7
20260902021514 56 263 1.0 4.0 0.00 0.06 0.01 96 1013.7
20260902021014 56 185 0.0 4.0 0.00 0.06 0.01 95 1013.8
20260902020515 56 238 1.0 4.0 0.00 0.06 0.01 96 1013.8
20260902020013 56 238 1.0 4.0 0.00 0.06 0.01 96 1013.8
20260902015514 55 172 0.0 3.0 0.00 0.06 0.01 95 1013.9
20260902015013 55 219 0.0 4.0 0.00 0.06 0.01 95 1013.8
20260902014515 55 198 1.0 4.0 0.00 0.06 0.01 96 1013.8
20260902014012 55 188 0.0 4.0 0.00 0.06 0.01 95 1013.8
20260902013511 54 245 1.0 4.0 0.00 0.06 0.01 95 1013.8
20260902013013 54 192 0.0 2.0 0.00 0.06 0.01 95 1013.9
20260902012511 54 192 0.0 2.0 0.00 0.06 0.01 95 1013.8
20260902012010 54 214 0.0 2.0 0.00 0.06 0.01 95 1013.9
20260902011516 54 214 0.0 2.0 0.00 0.06 0.01 95 1013.9
20260902011010 54 261 0.0 3.0 0.00 0.06 0.01 95 1013.9
20260902010510 53 281 0.0 3.0 0.00 0.06 0.01 95 1013.9
20260902010009 53 232 0.0 2.0 0.00 0.06 0.01 95 1014.0
20260902005509 53 232 0.0 2.0 0.00 0.06 0.01 95 1014.0
20260902005009 53 232 0.0 3.0 0.00 0.06 0.01 95 1014.0
20260902004508 53 223 0.0 1.0 0.00 0.06 0.01 94 1014.0
20260902004007 52 219 0.0 3.0 0.00 0.06 0.01 94 1014.1
20260902003510 52 219 0.0 3.0 0.00 0.06 0.01 94 1014.1
20260902003007 52 207 0.0 1.0 0.00 0.06 0.01 94 1014.1
20260902002509 52 186 0.0 0.0 0.00 0.06 0.01 93 1014.1
20260902002007 52 186 0.0 0.0 0.00 0.06 0.01 93 1014.2
20260902001506 52 186 0.0 0.0 0.00 0.06 0.01 93 1014.2
20260902001003 52 186 0.0 0.0 0.00 0.06 0.01 93 1014.2
20260902000503 52 186 0.0 0.0 0.00 0.06 0.01 93 1014.2
20260902000007 53 186 0.0 0.0 0.00 0.06 0.01 93 1014.2
20260901235501 53 186 0.0 0.0 0.00 0.07 0.01 93 1014.3
20260901235000 53 186 0.0 0.0 0.00 0.07 0.01 92 1014.3
20260901234608 53 186 0.0 0.0 0.00 0.07 0.01 92 1014.3
20260901234104 53 186 0.0 0.0 0.00 0.07 0.01 92 1014.2
20260901233558 54 186 0.0 1.0 0.00 0.07 0.01 92 1014.3
20260901233057 54 186 0.0 1.0 0.00 0.07 0.01 92 1014.3
20260901232557 54 186 0.0 2.0 0.01 0.07 0.01 93 1014.3
20260901232059 54 186 0.0 2.0 0.01 0.07 0.01 92 1014.4
20260901231605 54 269 0.0 2.0 0.01 0.07 0.01 92 1014.4
20260901231054 54 113 0.0 3.0 0.01 0.07 0.01 92 1014.5
20260901230555 54 246 0.0 2.0 0.01 0.07 0.01 92 1014.5
20260901230106 54 274 0.0 2.0 0.01 0.07 0.01 92 1014.5
20260901225553 55 247 0.0 3.0 0.01 0.07 0.01 92 1014.5
20260901225053 55 188 1.0 3.0 0.01 0.07 0.01 92 1014.4
20260901224554 55 276 0.0 4.0 0.01 0.07 0.01 91 1014.4
20260901224058 55 286 0.0 6.0 0.01 0.07 0.01 92 1014.5
20260901223556 55 313 1.0 3.0 0.01 0.07 0.01 91 1014.6
20260901223051 55 298 0.0 4.0 0.01 0.07 0.01 91 1014.5
20260901222551 55 320 1.0 5.0 0.00 0.06 0.00 91 1014.5
20260901222050 55 218 0.0 5.0 0.00 0.06 0.00 91 1014.4
20260901221604 56 307 1.0 2.0 0.00 0.06 0.00 91 1014.4
20260901221048 56 206 0.0 4.0 0.00 0.06 0.00 91 1014.3
20260901220548 56 272 0.0 7.0 0.00 0.06 0.00 91 1014.3
20260901220045 56 225 1.0 7.0 0.00 0.06 0.00 90 1014.3
20260901215545 56 279 1.0 6.0 0.00 0.06 0.06 91 1014.3
20260901215045 56 286 1.0 8.0 0.00 0.06 0.06 91 1014.3
20260901214544 56 278 3.0 8.0 0.00 0.06 0.06 91 1014.4
20260901214045 56 261 3.0 8.0 0.00 0.06 0.06 91 1014.4
20260901213546 57 322 1.0 9.0 0.00 0.06 0.06 91 1014.4
20260901213048 57 182 3.0 10.0 0.00 0.06 0.06 91 1014.4
20260901212643 57 240 1.0 10.0 0.00 0.06 0.06 91 1014.4
20260901212043 57 273 1.0 3.0 0.00 0.06 0.06 91 1014.3
20260901211543 57 177 0.0 4.0 0.00 0.06 0.06 91 1014.3
20260901211042 57 296 0.0 4.0 0.00 0.06 0.06 91 1014.3
20260901210545 57 286 1.0 5.0 0.00 0.06 0.06 91 1014.2
20260901210042 57 355 1.0 5.0 0.00 0.06 0.06 91 1014.2
20260901205543 57 308 0.0 7.0 0.00 0.06 0.06 91 1014.2
20260901205040 57 213 2.0 7.0 0.00 0.06 0.06 92 1014.2
20260901204541 57 279 1.0 4.0 0.00 0.06 0.06 91 1014.1
20260901204043 57 223 1.0 3.0 0.00 0.06 0.06 91 1014.1
20260901203543 57 299 0.0 3.0 0.00 0.06 0.06 91 1014.1
20260901203045 56 292 0.0 3.0 0.00 0.06 0.06 91 1014.1
20260901202538 56 288 0.0 2.0 0.00 0.06 0.06 90 1014.0
20260901202041 57 297 0.0 2.0 0.00 0.06 0.06 90 1014.0
20260901201545 57 169 0.0 2.0 0.00 0.06 0.06 90 1014.0
20260901201039 57 261 0.0 1.0 0.00 0.06 0.06 89 1014.0
20260901200537 57 261 0.0 1.0 0.00 0.06 0.06 89 1014.0
20260901200037 57 261 0.0 2.0 0.00 0.06 0.06 89 1014.0
20260901195537 58 261 0.0 2.0 0.00 0.06 0.06 89 1013.9
20260901195039 58 265 0.0 3.0 0.00 0.06 0.06 89 1013.9
20260901194536 58 136 1.0 3.0 0.00 0.06 0.06 88 1013.9
20260901194036 58 222 0.0 3.0 0.00 0.06 0.06 88 1013.9
20260901193536 58 222 0.0 3.0 0.00 0.06 0.06 88 1013.9
20260901193035 58 253 0.0 1.0 0.00 0.06 0.06 87 1013.9
20260901192537 58 254 0.0 2.0 0.00 0.06 0.06 87 1013.8
20260901192035 59 264 0.0 2.0 0.00 0.06 0.06 87 1013.7
20260901191541 59 264 0.0 2.0 0.00 0.06 0.06 86 1013.7
20260901191034 59 264 0.0 2.0 0.00 0.06 0.06 86 1013.7
20260901190533 59 264 0.0 2.0 0.00 0.06 0.06 85 1013.7
20260901190037 60 264 0.0 2.0 0.00 0.06 0.06 85 1013.7
20260901185532 60 264 0.0 2.0 0.00 0.06 0.06 85 1013.6
20260901185031 60 267 0.0 2.0 0.00 0.06 0.06 84 1013.6
20260901184531 61 285 0.0 4.0 0.00 0.06 0.06 83 1013.5
20260901184033 61 285 0.0 4.0 0.00 0.06 0.06 83 1013.4
20260901183533 61 263 0.0 3.0 0.00 0.06 0.06 82 1013.4
20260901183055 61 267 1.0 3.0 0.00 0.06 0.06 82 1013.4